Meteo pe oră la Bolshie Peti

Astăzi, 9 Mai, Duminică

Timp Temperatura Precipitaţii Vânt Presiune Umiditate
00:00 -1°C° 0 mm 2 m/s 752 mmHg 93%
01:00 -1°C° 0 mm 2 m/s 753 mmHg 92%
02:00 -1°C° 0 mm 2 m/s 753 mmHg 90%
03:00 -1°C° 0 mm 2 m/s 754 mmHg 90%
04:00 -1°C° 0 mm 2 m/s 754 mmHg 90%
05:00 -1°C° 0 mm 2 m/s 755 mmHg 90%
06:00 +2°C° 0 mm 2 m/s 755 mmHg 80%
07:00 +3°C° 0 mm 3 m/s 755 mmHg 70%
08:00 +5°C° 0 mm 3 m/s 756 mmHg 60%
09:00 +8°C° 0 mm 3 m/s 756 mmHg 54%
10:00 +9°C° 0 mm 3 m/s 756 mmHg 49%
11:00 +10°C° 0 mm 4 m/s 757 mmHg 43%
12:00 +11°C° 0 mm 3 m/s 757 mmHg 41%
13:00 +12°C° 0 mm 3 m/s 757 mmHg 39%
14:00 +12°C° 0 mm 3 m/s 757 mmHg 38%
15:00 +12°C° 0 mm 3 m/s 757 mmHg 38%
16:00 +13°C° 0 mm 2 m/s 758 mmHg 39%
17:00 +13°C° 0 mm 2 m/s 758 mmHg 40%
18:00 +10°C° 0 mm 2 m/s 758 mmHg 49%
19:00 +8°C° 0 mm 2 m/s 758 mmHg 58%
20:00 +6°C° 0 mm 2 m/s 758 mmHg 67%
21:00 +6°C° 0 mm 2 m/s 759 mmHg 68%
22:00 +5°C° 0 mm 2 m/s 759 mmHg 69%
23:00 +4°C° 0 mm 3 m/s 759 mmHg 70%

Mâine, 10 Mai, Luni

Timp Temperatura Precipitaţii Vânt Presiune Umiditate
00:00 +4°C° 0 mm 3 m/s 759 mmHg 68%
01:00 +5°C° 0 mm 3 m/s 759 mmHg 67%
02:00 +5°C° 0 mm 4 m/s 759 mmHg 66%
03:00 +5°C° 0 mm 4 m/s 759 mmHg 65%
04:00 +6°C° 0 mm 4 m/s 759 mmHg 65%
05:00 +6°C° 0 mm 4 m/s 759 mmHg 65%
06:00 +7°C° 0 mm 4 m/s 759 mmHg 64%
07:00 +8°C° 0 mm 4 m/s 759 mmHg 64%
08:00 +10°C° 0 mm 4 m/s 759 mmHg 64%
09:00 +12°C° 0 mm 5 m/s 760 mmHg 60%
10:00 +14°C° 0 mm 5 m/s 760 mmHg 56%
11:00 +16°C° 0 mm 5 m/s 760 mmHg 52%
12:00 +17°C° 0 mm 5 m/s 760 mmHg 51%
13:00 +19°C° 0 mm 5 m/s 760 mmHg 50%
14:00 +19°C° 0 mm 5 m/s 760 mmHg 49%
15:00 +19°C° 0 mm 5 m/s 760 mmHg 52%
16:00 +19°C° 0 mm 4 m/s 760 mmHg 54%
17:00 +19°C° 0 mm 4 m/s 760 mmHg 57%
18:00 +17°C° 0 mm 3 m/s 760 mmHg 65%
19:00 +14°C° 0 mm 3 m/s 760 mmHg 72%
20:00 +13°C° 0 mm 2 m/s 761 mmHg 80%
21:00 +12°C° 0 mm 3 m/s 761 mmHg 81%
22:00 +11°C° 0 mm 3 m/s 761 mmHg 82%
23:00 +10°C° 0 mm 3 m/s 762 mmHg 83%

Poimâine, 11 Mai, Marţi

Timp Temperatura Precipitaţii Vânt Presiune Umiditate
00:00 +10°C° 0 mm 3 m/s 762 mmHg 85%
01:00 +9°C° 0 mm 3 m/s 762 mmHg 86%
02:00 +8°C° 0 mm 2 m/s 762 mmHg 88%
03:00 +8°C° 0 mm 2 m/s 762 mmHg 87%
04:00 +8°C° 0 mm 2 m/s 762 mmHg 85%
05:00 +8°C° 0 mm 2 m/s 762 mmHg 84%
06:00 +10°C° 0 mm 3 m/s 762 mmHg 75%
07:00 +12°C° 0 mm 3 m/s 762 mmHg 67%
08:00 +14°C° 0 mm 3 m/s 763 mmHg 59%
09:00 +17°C° 0 mm 3 m/s 763 mmHg 54%
10:00 +18°C° 0 mm 3 m/s 763 mmHg 49%
11:00 +19°C° 0 mm 3 m/s 763 mmHg 44%
12:00 +20°C° 0 mm 3 m/s 762 mmHg 43%
13:00 +21°C° 0 mm 3 m/s 762 mmHg 42%
14:00 +21°C° 0 mm 3 m/s 762 mmHg 40%
15:00 +21°C° 0 mm 3 m/s 762 mmHg 44%
16:00 +21°C° 0 mm 3 m/s 762 mmHg 48%
17:00 +21°C° 0 mm 3 m/s 761 mmHg 52%
18:00 +18°C° 0 mm 2 m/s 761 mmHg 60%
19:00 +16°C° 0 mm 2 m/s 761 mmHg 68%
20:00 +14°C° 0 mm 2 m/s 761 mmHg 76%
21:00 +13°C° 0 mm 2 m/s 761 mmHg 77%
22:00 +12°C° 0 mm 2 m/s 761 mmHg 77%
23:00 +10°C° 0 mm 2 m/s 761 mmHg 77%

12 Mai, Miercuri

Timp Temperatura Precipitaţii Vânt Presiune Umiditate
00:00 +10°C° 0 mm 2 m/s 761 mmHg 78%
01:00 +9°C° 0 mm 2 m/s 761 mmHg 79%
02:00 +8°C° 0 mm 2 m/s 761 mmHg 79%
03:00 +9°C° 0 mm 2 m/s 761 mmHg 80%
04:00 +9°C° 0 mm 2 m/s 761 mmHg 82%
05:00 +10°C° 0 mm 1 m/s 761 mmHg 83%
06:00 +12°C° 0 mm 2 m/s 761 mmHg 76%
07:00 +15°C° 0 mm 2 m/s 761 mmHg 70%
08:00 +17°C° 0 mm 2 m/s 761 mmHg 64%
09:00 +18°C° 0 mm 2 m/s 760 mmHg 61%
10:00 +20°C° 0 mm 3 m/s 760 mmHg 57%
11:00 +21°C° 0 mm 3 m/s 760 mmHg 54%
12:00 +22°C° 0 mm 3 m/s 759 mmHg 51%
13:00 +23°C° 0 mm 4 m/s 759 mmHg 49%
14:00 +23°C° 0 mm 4 m/s 758 mmHg 47%
15:00 +22°C° 0.1 mm 4 m/s 758 mmHg 53%
16:00 +21°C° 0.1 mm 4 m/s 757 mmHg 60%
17:00 +20°C° 0.1 mm 4 m/s 757 mmHg 67%
18:00 +18°C° 0.1 mm 4 m/s 757 mmHg 75%
19:00 +17°C° 0.1 mm 3 m/s 757 mmHg 83%
20:00 +15°C° 0.1 mm 2 m/s 757 mmHg 91%
21:00 +14°C° 0 mm 2 m/s 757 mmHg 92%
22:00 +13°C° 0 mm 2 m/s 757 mmHg 94%
23:00 +12°C° 0 mm 2 m/s 757 mmHg 95%

13 Mai, Joi

Timp Temperatura Precipitaţii Vânt Presiune Umiditate
00:00 +10°C° 0 mm 2 m/s 757 mmHg 95%
01:00 +10°C° 0 mm 2 m/s 757 mmHg 96%
02:00 +10°C° 0 mm 1 m/s 756 mmHg 96%
03:00 +9°C° 0 mm 2 m/s 756 mmHg 96%
04:00 +9°C° 0 mm 2 m/s 755 mmHg 96%
05:00 +10°C° 0 mm 2 m/s 755 mmHg 96%
06:00 +12°C° 0.1 mm 2 m/s 754 mmHg 90%
07:00 +12°C° 0.1 mm 3 m/s 754 mmHg 84%
08:00 +14°C° 0.1 mm 4 m/s 754 mmHg 78%
09:00 +13°C° 0.3 mm 4 m/s 754 mmHg 81%
10:00 +12°C° 0.3 mm 4 m/s 753 mmHg 83%
11:00 +12°C° 0.3 mm 4 m/s 753 mmHg 85%
12:00 +13°C° 0.1 mm 5 m/s 753 mmHg 74%
13:00 +15°C° 0.1 mm 5 m/s 753 mmHg 62%
14:00 +16°C° 0.1 mm 6 m/s 753 mmHg 50%
15:00 +15°C° 0.2 mm 5 m/s 753 mmHg 55%
16:00 +15°C° 0.2 mm 5 m/s 753 mmHg 60%
17:00 +14°C° 0.2 mm 4 m/s 753 mmHg 65%
18:00 +13°C° 0 mm 3 m/s 753 mmHg 70%
19:00 +12°C° 0 mm 3 m/s 753 mmHg 75%
20:00 +10°C° 0 mm 2 m/s 753 mmHg 79%
21:00 +10°C° 0 mm 2 m/s 753 mmHg 81%
22:00 +9°C° 0 mm 2 m/s 753 mmHg 83%
23:00 +9°C° 0 mm 2 m/s 753 mmHg 84%

14 Mai, Vineri

Timp Temperatura Precipitaţii Vânt Presiune Umiditate
00:00 +9°C° 0.1 mm 2 m/s 753 mmHg 87%
01:00 +9°C° 0.1 mm 2 m/s 753 mmHg 89%
02:00 +9°C° 0.1 mm 2 m/s 753 mmHg 91%
03:00 +9°C° 0.8 mm 2 m/s 752 mmHg 93%
04:00 +9°C° 0.8 mm 2 m/s 752 mmHg 96%
05:00 +11°C° 0.8 mm 1 m/s 751 mmHg 98%
06:00 +10°C° 1.3 mm 2 m/s 751 mmHg 98%
07:00 +10°C° 1.3 mm 2 m/s 750 mmHg 98%
08:00 +12°C° 1.3 mm 2 m/s 750 mmHg 98%
09:00 +12°C° 0.2 mm 2 m/s 750 mmHg 97%
10:00 +13°C° 0.2 mm 2 m/s 749 mmHg 97%
11:00 +14°C° 0.2 mm 2 m/s 749 mmHg 96%
12:00 +14°C° 0.7 mm 2 m/s 749 mmHg 96%
13:00 +14°C° 0.7 mm 2 m/s 749 mmHg 96%
14:00 +14°C° 0.7 mm 2 m/s 750 mmHg 97%
15:00 +15°C° 0.2 mm 2 m/s 749 mmHg 92%
16:00 +15°C° 0.2 mm 2 m/s 749 mmHg 88%
17:00 +16°C° 0.2 mm 2 m/s 749 mmHg 83%
18:00 +15°C° 0 mm 1 m/s 749 mmHg 86%
19:00 +14°C° 0 mm 1 m/s 749 mmHg 89%
20:00 +12°C° 0 mm 0 m/s 749 mmHg 93%
21:00 +11°C° 0 mm 0 m/s 749 mmHg 94%
22:00 +11°C° 0 mm 0 m/s 750 mmHg 94%
23:00 +10°C° 0 mm 0 m/s 750 mmHg 95%
Arată mai mult

Formular de consimțământ

Meteoprog și furnizorii noștri de servicii pot stoca și accesa date personale, precum cookies, identificatori de dispozitiv sau alte tehnologii similare pe dispozitivul dumneavoastră și procesa astfel de date pentru a personaliza conținutul și reclamele, dar și pentru a oferi caracteristici de social media și pentru a analiza traficul.

  • Stocarea și/sau accesarea informațiilor pe dispozitivul dumneavoastră

    Cookies, identificatori de dispozitiv sau alte informații pot fi stocate sau accesate pe dispozitiv în scopurile indicate mai sus.

  • Reclame și conținut personalizat, evaluarea reclamelor și a conținutului, informații despre audiențe și dezvoltarea produselor

    Reclamele și conținutul pot fi personalizate pe baza unui profil. Pot fi adăugate date suplimentare pentru a personaliza mai bine reclamele și conținutul. Performanța reclamelor și conținutului poate fi măsurată. Pot fi obținute informații despre utilizatorii care au văzut reclamele și conținutul. Aceste date pot fi utilizate pentru a dezvolta sau îmbunătăți experiența utilizatorilor, sistemele și software-ul.

Dând clic pe ‘Sunt de acord’, permiteți utilizarea cookie-urilor menționate, a identificatorilor de dispozitiv, balizelor web sau altor tehnologii similare. Setările pot fi modificate din browser-ul dispozitivului dumneavoastră.

În anumite scopuri, interesele legitime pot prima asupra consimțământului. Puteți citi mai multe informații în acest sens în Politica privind Confidențialitatea Datelor și Cookie.